Location: Camps Bay
(33.9517°S, 18.3844°E)
Time: 13:07:48
(UTC+00:00)

H-2A R/B - Pass Details

Date: 18 January 2020
Orbit: 579 x 655 km, 98.5° (Epoch: 17 February)

Event Time Altitude Azimuth Distance (km) Brightness Sun altitude
Rises 01:36:45 0° 157° (SSE) 2,868 6.7 -23.4°
Reaches altitude 10° 01:39:07 10° 147° (SSE) 1,946 5.7 -23.1°
Maximum altitude 01:42:58 34° 81° (E) 983 3.3 -22.5°
Enters shadow 01:44:39 24° 37° (NE) 1,224 3.4 -22.3°
